This demonstration page uses our WeatherBlox Daily Observations layout. Learn more.

Left ArrowRight Arrow

41.86663, -103.66717

Hourly Observations for January 28, 2016

Temp ( °F °C ) Dew Point ( °F °C ) Humidity (%) Winds ( mph kmh ) Pressure ( in mb ) Visibility ( mi km ) Precip ( " mm )
12:53 am 00:53 Clear 32 undefined 23 -5 69 69 WNW 13 20 30.16 1021 10 16 N/A
1:53 am 01:53 Clear 33 0.6 23 -5 66 66 WNW 14 22 30.14 1021 10 16 N/A
2:53 am 02:53 Clear 35 1.7 23 -5 61 61 WNW 12 19 30.14 1021 10 16 N/A
3:53 am 03:53 Clear 29 -1.7 23 -5 78 78 NW 9 15 30.15 1021 10 16 N/A
4:53 am 04:53 Clear 30 -1.1 23 -5 75 75 NW 12 19 30.15 1021 10 16 N/A
5:53 am 05:53 Clear 28 -2.2 22 -5.6 78 78 NW 7 11 30.17 1022 10 16 N/A
6:53 am 06:53 Clear 28 -2.2 22 -5.6 78 78 NW 7 11 30.17 1022 10 16 N/A
7:53 am 07:53 Sunny 30 -1.1 24 -4.4 79 79 N 7 11 30.16 1022 10 16 N/A
8:53 am 08:53 Sunny 37 2.8 24 -4.4 59 59 NW 8 13 30.14 1021 10 16 N/A
9:53 am 09:53 Sunny 43 6.1 28 -2.2 56 56 NW 7 11 30.12 1020 10 16 N/A
10:53 am 10:53 Sunny 51 10.6 26 -3.3 38 38 WNW 17 28 30.07 1018 10 16 N/A
11:53 am 11:53 Sunny 54 12.2 27 -2.8 35 35 W 18 30 30.03 1017 10 16 N/A
12:53 pm 12:53 Sunny 54 12.2 28 -2.2 37 37 W 15 24 29.98 1015 10 16 N/A
1:53 pm 13:53 Sunny 57 13.9 28 -2.2 33 33 W 18 30 29.93 1014 10 16 N/A
2:53 pm 14:53 Sunny 53 11.7 29 -1.7 40 40 W 10 17 29.92 1013 10 16 N/A
3:53 pm 15:53 Sunny 53 11.7 28 -2.2 38 38 WNW 14 22 29.92 1013 10 16 N/A
4:53 pm 16:53 Sunny 51 10.6 27 -2.8 39 39 WNW 17 28 29.91 1013 10 16 N/A
5:53 pm 17:53 Clear 48 8.9 27 -2.8 44 44 W 13 20 29.91 1013 10 16 N/A
6:53 pm 18:53 Clear 47 8.3 27 -2.8 46 46 W 14 22 29.90 1013 10 16 N/A
7:53 pm 19:53 Clear 47 8.3 26 -3.3 44 44 W 12 19 29.88 1012 10 16 N/A
8:53 pm 20:53 Clear 37 2.8 26 -3.3 65 65 NNW 5 7 29.87 1012 10 16 N/A
9:53 pm 21:53 Clear 37 2.8 26 -3.3 65 65 N 7 11 29.83 1010 10 16 N/A
10:53 pm 22:53 Clear 37 2.8 26 -3.3 65 65 NNE 3 6 29.80 1009 10 16 N/A
11:53 pm 23:53 Clear 36 2.2 25 -3.9 64 64 WNW 6 9 29.77 1008 10 16 N/A

Powered by AerisWeather